Location: Ch�ze
(42.9000°N, 0.0333°W)
Time: 02:51:32
(UTC+00:00)

Cosmos 1655 Rocket - Pass Details

Date: 24 January 2021
Orbit: 971 x 1005 km, 83.0° (Epoch: 04 March)

Event Time Altitude Azimuth Distance (km) Brightness Sun altitude
Rises 19:35:57 0° 184° (S) 3,664 7.1 -27.9°
Reaches altitude 10° 19:38:27 10° 184° (S) 2,717 6.4 -28.4°
Enters shadow 19:44:13 78° 170° (S) 998 3.9 -29.5°
Exits shadow 19:53:29 - 9° (N) 3,693 7.0 -31.2°
